DECAYED

STARLINK-1390, 45550 (Decayed)

Orbit data source: Space-Track

STARLINK-1390, 45550 was a payload satellite owned by SpaceX/Seattle (US) in LEO that was launched on Wed, 22 Apr 2020 UTC via an FALCON 9 launch vehicle from the Air Force Eastern Test Range (AFETR). Payload-class satellites include a variety of spacecraft equipped with specific instruments for various scientific and technological missions. These include communications satellites like Starlink; space stations such as the ISS; scientific satellites like the Hubble; Earth observation satellites from companies like Planet Labs, Umbra, and HawkEye 360; GPS; miniature CubeSats for education and research; and military/defense satellites.

Not visible in the next 10 days
Identifier
45550, 2020-025V
Orbit
Decayed
Country
Flag of USUS
Related business
Manufacturer
SpaceX/Seattle
Mission
Decayed Commercial Communications
Bus & Motor
STARLINK, Unknown motor
Mass
260 kg wet, ~248 kg dry
Launch date (UTC)
2020-04-22 (5 years ago)
Launch vehicle
FALCON 9
Launch site
Air Force Eastern Test Range (AFETR)
Object type
Payload
Rocket body
Debris
Shape & HBR
Box + 1 Pan, 10.1 m
Radar Cross Section
13.562 m², Large (>1 m²)

Expand to show TLE details & history
Last TLE update: 7 months ago

TLE from 7 months ago
0 STARLINK-1390
1 45550U 20025V   25080.20672096  .05069048  12546-4  19771-3 0  9997
2 45550  53.0231 201.7313 0007779 338.1459  90.1412 16.43430149271782
Epoch: 2025-03-21T04:57Z
TLE epoch observation values (Epoch: 2025-03-21T04:57:40.690Z)
Latitude
48.1114°
Longitude
4.92128°
Altitude
162.041 km
Speed
7.815 km/s
True Right ascension
17h 13m 14s
True Declination
47° 55' 29"
Sunlit
Object was in daylight at epoch
Visualization orbit readout
Latitude
Unknown
Longitude
Unknown
Altitude
Unknown
Speed
Unknown
Apparent Right ascension
Unknown
Apparent Declination
Unknown
Sunlit
N/A
Visualization observer readout
Local Sidereal Time
09:01:41
Azimuth
Unknown
Elevation
Unknown
Doppler factor
Unknown
Orbital elements
Apogee altitude
162.069 km
Perigee altitude
151.902 km
Semi-major axis
6,535.122 km
Eccentricity
0.00078
Inclination
53.0231°
RAAN
201.7313°
Arg. of periapsis
338.1459°
True anomaly
90.23034°
Mean anomaly
90.1412°
Eccentric anomaly
90.18577°
Mean motion
4.1083 °/min
Orbital period
87.63 mins
BSTAR
0.00019771
Loading maneuver chart data...
Computing Atmospheric mass density...

Documentation

Showing up to 5 results
|